QPF
0.00 0.00 0.00 0.00 0.00 0.00 0.00 0.00 0.00 0.00 0.00 0.00 0.00 0.00 0.00 0.00 0.01 0.01 0.01 0.00 0.00 0.00 0.00 0.01 0.00 0.00 0.00 0.01 0.02 0.01 0.03 0.01 0.00
0.00 0.00 0.00 0.00 0.00 0.00 0.00 0.00 0.00 0.00 0.00 0.00 0.00 0.00 0.00 0.00 0.00 0.00 0.00 0.00 0.00 0.01 0.00 0.02 0.01 0.00 0.00 0.01 0.01 0.01 0.02 0.00 0.03
0.00 0.00 0.00 0.00 0.00 0.00 0.00 0.00 0.00 0.00 0.00 0.00 0.00 0.00 0.00 0.00 0.00 0.00 0.00 0.01 0.00 0.00 0.00 0.02 0.24 0.14 0.02 0.01 0.00 0.01 0.02 0.00 0.02
0.00 0.00 0.00 0.00 0.00 0.00 0.00 0.00 0.00 0.00 0.00 0.00 0.00 0.00 0.00 0.00 0.00 0.00 0.00 0.00 0.00 0.00 0.01 0.03 0.12 0.16 0.05 0.04 0.03 0.04 0.03 0.01 0.06
0.00 0.00 0.00 0.00 0.00 0.00 0.00 0.00 0.00 0.00 0.00 0.00 0.00 0.00 0.00 0.00 0.00 0.00 0.00 0.00 0.00 0.00 0.02 0.05 0.05 0.12 0.10 0.07 0.05 0.05 0.04 0.01 0.03
0.00 0.00 0.00 0.00 0.00 0.00 0.00 0.00 0.00 0.00 0.00 0.00 0.00 0.00 0.00 0.00 0.00 0.00 0.00 0.00 0.00 0.00 0.03 0.06 0.04 0.08 0.04 0.03 0.03 0.04 0.04 0.04 0.05
0.00 0.00 0.00 0.00 0.00 0.00 0.00 0.00 0.00 0.00 0.00 0.00 0.00 0.00 0.00 0.00 0.00 0.00 0.00 0.00 0.00 0.01 0.05 0.07 0.04 0.05 0.02 0.02 0.01 0.03 0.04 0.06 0.05
0.00 0.00 0.00 0.00 0.00 0.00 0.00 0.00 0.00 0.00 0.01 0.00 0.01 0.02 0.01 0.00 0.00 0.00 0.00 0.00 0.00 0.00 0.03 0.03 0.03 0.03 0.03 0.00 0.02 0.01 0.03 0.07 0.07
0.00 0.00 0.00 0.00 0.00 0.00 0.00 0.00 0.00 0.00 0.00 0.00 0.01 0.05 0.03 0.09 0.16 0.13 0.10 0.06 0.03 0.02 0.00 0.03 0.04 0.01 0.00 0.00 0.00 0.00 0.00 0.00 0.01
0.00 0.00 0.00 0.00 0.00 0.00 0.00 0.00 0.00 0.00 0.00 0.00 0.00 0.04 0.04 0.06 0.16 0.18 0.16 0.14 0.08 0.04 0.02 0.00 0.02 0.02 0.01 0.00 0.00 0.00 0.00 0.01 0.00
0.00 0.00 0.00 0.00 0.00 0.00 0.00 0.00 0.00 0.00 0.00 0.00 0.00 0.00 0.02 0.09 0.16 0.17 0.20 0.23 0.10 0.05 0.05 0.01 0.00 0.00 0.01 0.01 0.00 0.00 0.00 0.01 0.00
0.00 0.00 0.00 0.00 0.00 0.00 0.00 0.00 0.00 0.00 0.00 0.00 0.00 0.00 0.00 0.06 0.12 0.17 0.16 0.16 0.16 0.10 0.06 0.02 0.00 0.00 0.00 0.00 0.00 0.00 0.00 0.01 0.00
0.00 0.00 0.00 0.00 0.00 0.00 0.00 0.00 0.00 0.00 0.00 0.00 0.00 0.00 0.00 0.02 0.04 0.09 0.11 0.07 0.12 0.22 0.16 0.06 0.03 0.00 0.00 0.00 0.00 0.00 0.00 0.00 0.00
0.00 0.00 0.00 0.00 0.00 0.00 0.00 0.00 0.00 0.00 0.00 0.00 0.00 0.00 0.00 0.01 0.02 0.09 0.11 0.17 0.23 0.30 0.28 0.23 0.13 0.07 0.03 0.00 0.00 0.00 0.02 0.01 0.00
0.00 0.00 0.00 0.00 0.00 0.00 0.00 0.00 0.00 0.00 0.00 0.00 0.00 0.01 0.01 0.01 0.00 0.01 0.03 0.12 0.22 0.33 0.42 0.39 0.32 0.17 0.12 0.07 0.03 0.00 0.02 0.10 0.01
0.00 0.00 0.00 0.00 0.00 0.00 0.00 0.00 0.00 0.00 0.00 0.00 0.00 0.01 0.02 0.01 0.00 0.02 0.03 0.01 0.05 0.15 0.29 0.35 0.31 0.24 0.12 0.10 0.10 0.02 0.00 0.08 0.08
0.00 0.00 0.00 0.00 0.00 0.00 0.00 0.00 0.00 0.00 0.00 0.00 0.00 0.01 0.02 0.02 0.00 0.01 0.07 0.05 0.03 0.01 0.01 0.11 0.24 0.34 0.32 0.25 0.20 0.10 0.05 0.09 0.11
0.00 0.00 0.00 0.00 0.01 0.01 0.00 0.01 0.01 0.00 0.01 0.01 0.01 0.01 0.01 0.01 0.00 0.00 0.02 0.03 0.03 0.04 0.00 0.01 0.09 0.16 0.17 0.20 0.14 0.07 0.07 0.09 0.06
0.00 0.00 0.01 0.02 0.02 0.02 0.01 0.02 0.03 0.03 0.03 0.04 0.03 0.01 0.00 0.00 0.00 0.00 0.00 0.01 0.08 0.10 0.07 0.03 0.03 0.16 0.23 0.25 0.21 0.21 0.18 0.25 0.25
0.00 0.01 0.03 0.03 0.02 0.02 0.03 0.03 0.02 0.02 0.04 0.05 0.04 0.05 0.02 0.01 0.00 0.00 0.00 0.00 0.03 0.04 0.10 0.13 0.07 0.04 0.12 0.14 0.20 0.35 0.26 0.40 0.43
MSLP
1001.88 1002.74 1003.39 1003.55 1004.26 1005.04 1005.91 1006.74 1007.43 1008.06 1009.05 1009.99 1010.70 1011.23 1011.71 1012.09 1012.34 1012.49 1012.59 1012.60 1013.01 1013.21 1013.10 1013.29 1013.18 1013.60 1014.07 1014.38 1014.43 1014.45 1014.55 1014.46 1014.42
1002.40 1002.81 1002.79 1003.11 1003.62 1004.37 1005.20 1005.97 1006.91 1007.80 1008.78 1009.54 1010.19 1010.65 1011.22 1011.72 1011.97 1011.99 1011.81 1011.90 1012.26 1012.74 1012.79 1012.97 1013.66 1013.49 1013.49 1013.76 1014.27 1014.76 1014.62 1014.62 1014.54
1003.53 1003.87 1004.00 1003.96 1003.87 1003.98 1004.33 1005.02 1006.17 1007.16 1008.07 1009.00 1009.63 1009.96 1010.61 1011.15 1011.45 1011.62 1011.53 1011.65 1011.98 1012.13 1012.57 1013.17 1013.60 1013.53 1014.26 1013.67 1014.04 1014.39 1014.80 1014.66 1014.50
1004.38 1004.86 1005.00 1005.03 1004.86 1004.57 1004.39 1004.29 1005.11 1006.41 1007.39 1008.27 1009.06 1009.52 1009.94 1010.40 1010.84 1011.11 1011.20 1011.22 1011.55 1011.89 1012.10 1012.51 1013.58 1013.98 1014.68 1013.38 1013.69 1014.40 1014.86 1014.72 1014.45
1005.69 1005.85 1005.95 1006.00 1006.14 1006.09 1005.86 1005.52 1005.53 1005.88 1006.70 1007.59 1008.21 1008.67 1009.27 1009.77 1010.22 1010.53 1010.65 1011.00 1011.15 1011.58 1011.85 1011.80 1012.41 1012.90 1013.21 1013.44 1013.59 1014.27 1014.71 1014.64 1014.34
1006.65 1006.92 1007.00 1006.95 1007.11 1007.28 1007.24 1007.22 1007.30 1007.38 1007.25 1007.26 1007.58 1007.99 1008.59 1009.07 1009.46 1009.83 1009.92 1010.27 1010.85 1011.24 1011.73 1012.09 1012.28 1012.63 1013.04 1013.09 1013.57 1013.89 1014.36 1014.17 1013.97
1007.01 1007.37 1007.72 1007.97 1008.05 1008.19 1008.32 1008.38 1008.41 1008.39 1008.19 1008.24 1007.87 1007.36 1007.81 1008.17 1008.65 1009.02 1009.37 1009.48 1010.08 1010.59 1011.10 1011.94 1012.02 1012.13 1012.54 1012.85 1013.23 1013.45 1013.47 1013.56 1013.49
1007.57 1007.87 1008.10 1008.44 1008.62 1008.73 1008.71 1008.77 1008.72 1008.59 1008.51 1008.42 1008.52 1008.40 1007.88 1007.81 1007.88 1008.27 1008.72 1009.00 1009.14 1009.78 1010.27 1010.97 1011.45 1011.72 1011.88 1012.17 1012.37 1012.39 1012.59 1012.77 1012.77
1007.79 1008.17 1008.48 1008.81 1008.92 1008.88 1008.80 1008.97 1008.91 1008.84 1008.73 1008.79 1008.76 1008.82 1008.68 1008.28 1008.03 1007.98 1008.27 1008.67 1008.76 1008.96 1009.47 1009.99 1010.69 1010.89 1011.04 1010.97 1011.03 1011.02 1011.26 1011.52 1011.96
1007.72 1008.07 1008.49 1008.84 1008.94 1008.80 1008.73 1008.84 1008.78 1008.84 1008.82 1008.81 1008.82 1008.79 1008.67 1008.56 1008.25 1008.27 1008.45 1008.58 1008.79 1008.96 1008.99 1009.21 1009.67 1010.15 1010.28 1010.29 1010.36 1010.27 1010.38 1010.72 1011.08
1007.60 1008.15 1008.54 1008.70 1008.61 1008.51 1008.55 1008.66 1008.83 1008.91 1008.91 1008.77 1008.64 1008.51 1008.39 1008.39 1008.25 1008.24 1008.12 1008.44 1008.34 1008.35 1008.53 1008.65 1008.76 1009.24 1009.60 1009.84 1009.77 1009.93 1010.17 1010.28 1010.71
1008.32 1008.45 1008.47 1008.39 1008.34 1008.40 1008.51 1008.57 1008.64 1008.74 1008.73 1008.58 1008.39 1008.13 1007.97 1007.81 1007.85 1007.80 1007.73 1007.65 1007.56 1007.47 1007.85 1007.97 1007.95 1008.30 1008.82 1009.11 1009.26 1009.38 1009.71 1010.22 1010.37
1008.49 1008.48 1008.41 1008.33 1008.27 1008.19 1008.21 1008.20 1008.17 1008.20 1008.22 1008.28 1008.16 1007.86 1007.59 1007.41 1007.48 1007.43 1007.47 1007.20 1007.12 1007.11 1007.40 1007.40 1007.40 1007.56 1007.94 1008.20 1008.37 1008.68 1008.99 1009.46 1009.72
1008.42 1008.35 1008.24 1007.94 1007.79 1007.66 1007.58 1007.55 1007.48 1007.55 1007.68 1007.71 1007.72 1007.59 1007.35 1007.04 1006.79 1006.89 1007.13 1007.23 1007.10 1006.92 1007.05 1007.23 1007.11 1007.24 1007.28 1007.51 1007.66 1007.73 1008.12 1008.59 1009.00
1008.22 1007.96 1007.87 1007.86 1007.78 1007.61 1007.47 1007.48 1007.30 1007.14 1007.27 1007.48 1007.19 1007.05 1006.95 1006.72 1006.42 1006.28 1006.46 1006.41 1006.11 1006.81 1007.60 1007.41 1006.66 1006.43 1006.74 1006.98 1006.74 1006.79 1006.98 1007.50 1007.95
1008.40 1008.31 1008.14 1008.00 1007.71 1007.32 1007.24 1007.21 1007.13 1006.67 1006.68 1007.00 1006.93 1006.67 1006.42 1006.21 1006.00 1005.69 1005.68 1005.77 1006.01 1006.91 1005.66 1005.05 1007.52 1006.56 1006.21 1005.89 1005.89 1005.78 1005.85 1006.20 1006.79
1008.72 1008.56 1008.34 1008.15 1007.90 1007.44 1007.20 1007.11 1006.82 1006.34 1006.12 1006.10 1006.16 1006.15 1005.87 1005.65 1005.32 1005.23 1005.15 1005.22 1005.12 1005.61 1005.73 1006.84 1003.63 1006.40 1006.93 1006.61 1006.24 1005.97 1004.96 1005.49 1006.21
1009.01 1008.86 1008.63 1008.33 1007.97 1007.50 1007.05 1006.67 1006.26 1005.93 1005.69 1005.56 1005.47 1005.36 1005.24 1004.86 1004.49 1004.07 1004.10 1004.03 1004.20 1004.22 1004.32 1003.99 1005.23 1005.35 1005.44 1005.33 1006.13 1006.49 1006.72 1005.31 1004.79
1009.28 1009.04 1008.69 1008.22 1007.83 1007.36 1006.67 1006.16 1005.62 1005.32 1005.09 1004.94 1004.83 1004.61 1004.41 1004.09 1003.40 1002.83 1002.47 1002.33 1002.83 1002.80 1003.37 1003.56 1003.70 1004.09 1004.34 1003.78 1005.31 1006.27 1006.02 1005.52 1003.58
1009.60 1009.14 1008.65 1008.12 1007.69 1007.11 1006.21 1005.55 1005.09 1004.58 1004.33 1004.17 1004.05 1003.93 1003.70 1003.46 1002.97 1002.37 1001.60 1001.27 1001.39 1002.03 1002.41 1003.51 1003.71 1003.11 1003.09 1003.15 1004.57 1005.77 1004.94 1006.29 1004.88
Thickness
5846 5839 5836 5837 5832 5828 5822 5817 5814 5811 5802 5795 5791 5788 5784 5782 5781 5779 5779 5781 5778 5777 5780 5778 5782 5780 5778 5777 5778 5780 5783 5787 5789
5836 5837 5841 5838 5839 5835 5829 5823 5817 5812 5805 5799 5795 5792 5788 5783 5782 5783 5786 5786 5784 5780 5779 5778 5777 5779 5782 5782 5778 5775 5780 5782 5783
5827 5829 5831 5834 5836 5837 5837 5834 5827 5820 5813 5803 5799 5797 5793 5788 5786 5785 5787 5787 5782 5781 5778 5776 5769 5766 5766 5778 5779 5778 5774 5778 5782
5820 5819 5821 5824 5828 5835 5839 5841 5835 5824 5816 5809 5802 5799 5796 5792 5789 5788 5788 5788 5785 5781 5779 5778 5764 5752 5761 5779 5777 5774 5770 5774 5779
5810 5812 5813 5816 5816 5819 5821 5825 5827 5824 5820 5812 5809 5805 5800 5795 5792 5790 5789 5787 5786 5781 5776 5781 5776 5777 5774 5775 5774 5770 5766 5769 5777
5799 5799 5800 5803 5804 5802 5805 5807 5808 5807 5810 5813 5813 5809 5804 5799 5795 5792 5791 5789 5785 5781 5773 5772 5772 5771 5767 5769 5768 5768 5765 5771 5775
5793 5791 5789 5788 5789 5790 5790 5791 5793 5795 5795 5797 5803 5810 5806 5801 5797 5794 5792 5792 5787 5783 5778 5767 5769 5769 5766 5766 5766 5765 5768 5770 5772
5780 5777 5778 5778 5777 5778 5781 5781 5782 5786 5789 5789 5790 5789 5797 5797 5799 5796 5793 5790 5790 5785 5781 5775 5771 5768 5768 5767 5767 5771 5771 5771 5773
5768 5768 5768 5767 5767 5768 5770 5770 5771 5774 5776 5777 5779 5777 5780 5785 5789 5791 5788 5787 5786 5786 5782 5777 5772 5772 5772 5773 5776 5778 5777 5777 5773
5763 5765 5764 5759 5756 5758 5761 5760 5762 5760 5763 5766 5765 5766 5770 5772 5776 5778 5779 5779 5777 5777 5777 5777 5773 5770 5772 5773 5776 5778 5776 5775 5775
5760 5758 5753 5751 5753 5753 5753 5753 5750 5749 5748 5749 5751 5753 5757 5760 5764 5767 5772 5770 5773 5774 5774 5773 5772 5769 5769 5770 5774 5774 5772 5771 5772
5749 5748 5748 5746 5746 5742 5740 5738 5738 5735 5733 5734 5736 5739 5744 5749 5753 5758 5763 5767 5770 5773 5771 5772 5772 5769 5766 5767 5770 5770 5769 5766 5768
5740 5740 5739 5736 5734 5734 5731 5730 5730 5727 5725 5722 5721 5724 5731 5738 5742 5744 5749 5760 5764 5766 5765 5766 5769 5768 5766 5767 5769 5769 5767 5766 5767
5734 5731 5728 5729 5727 5725 5726 5728 5727 5721 5718 5715 5714 5715 5718 5724 5732 5731 5737 5743 5747 5755 5755 5756 5760 5760 5761 5762 5766 5768 5766 5763 5765
5725 5724 5722 5720 5716 5716 5719 5718 5715 5712 5709 5708 5709 5708 5708 5713 5720 5724 5726 5727 5735 5734 5729 5737 5751 5756 5755 5756 5763 5764 5765 5763 5762
5712 5711 5710 5710 5708 5708 5708 5707 5705 5705 5704 5700 5699 5699 5700 5702 5708 5715 5716 5719 5717 5706 5711 5682 5715 5740 5748 5754 5757 5763 5764 5764 5761
5700 5699 5697 5697 5696 5695 5694 5694 5694 5696 5698 5697 5692 5690 5691 5694 5698 5700 5702 5703 5706 5698 5700 5697 5697 5698 5718 5733 5740 5747 5760 5761 5758
5689 5687 5687 5687 5685 5684 5684 5684 5685 5687 5688 5687 5683 5683 5683 5686 5691 5697 5695 5698 5700 5701 5703 5712 5698 5706 5710 5727 5726 5733 5733 5745 5758
5679 5677 5679 5678 5676 5673 5675 5675 5677 5678 5679 5679 5677 5677 5678 5679 5686 5695 5700 5702 5700 5704 5700 5703 5707 5717 5722 5733 5724 5718 5727 5731 5753
5668 5670 5671 5669 5666 5666 5667 5668 5669 5672 5674 5674 5673 5672 5673 5674 5677 5684 5693 5699 5701 5701 5703 5694 5700 5711 5716 5721 5714 5706 5716 5710 5732